User: anonymous   Login
Location: Belfast
(54.5830°N, 5.9330°W)
Time: 13:24:41
(UTC+01:00)
Language:

Coronas F rocket - Orbit

View from above orbital plane
View from above orbital plane
View from above satellite
View from above satellite

Ground track
Ground track

The orbit data is extracted from the following two-line orbital elements,

1 26874U 01032B   15245.95247117 +.00012047 +00000-0 +10998-3 0  9990
2 26874 082.4637 234.2085 0009747 198.9619 161.1280 15.67611632790309
Epoch (UTC): 02 September 2015 22:51:33
Eccentricity: 0.0009747
inclination: 82.4637°
perigee height: 359 km
apogee height: 372 km
right ascension of ascending node: 234.2085°
argument of perigee: 198.9619°
revolutions per day: 15.67611632
mean anomaly at epoch: 161.1280°
orbit number at epoch: 79030

The dashed part of the orbit path shows where the satellite is in the earth's shadow,  

DLR